GW4081 Weather Reports


Display with metric or nautical units.
time (UTC)temp
F
wind
direction
speed
MPH
gust
MPH
rain 1hr
in
rain 24hr
in
rain mn
in
humidity
%
barometer
mb
20260506235104 66 7 4.0 12.0 0.00 0.00 0.00 48 1016.7
20260506234604 65 17 3.0 9.0 0.00 0.00 0.00 49 1016.7
20260506234105 65 22 5.0 12.0 0.00 0.00 0.00 48 1016.6
20260506233605 65 54 5.0 13.0 0.00 0.00 0.00 49 1016.6
20260506233104 66 2 6.0 13.0 0.00 0.00 0.00 48 1016.5
20260506232604 66 51 4.0 13.0 0.00 0.00 0.00 48 1016.4
20260506232104 66 13 6.0 13.0 0.00 0.00 0.00 48 1016.3
20260506231604 66 51 5.0 12.0 0.00 0.00 0.00 48 1016.4
20260506231104 66 23 4.0 13.0 0.00 0.00 0.00 48 1016.3
20260506230604 66 20 4.0 13.0 0.00 0.00 0.00 48 1016.3
20260506230105 66 17 6.0 13.0 0.00 0.00 0.00 48 1016.2
20260506225605 66 55 5.0 14.0 0.00 0.00 0.00 48 1016.2
20260506225105 66 1 5.0 14.0 0.00 0.00 0.00 48 1016.2
20260506224605 66 43 3.0 12.0 0.00 0.00 0.00 49 1016.0
20260506224104 66 16 6.0 12.0 0.00 0.00 0.00 48 1016.1
20260506223605 67 31 3.0 10.0 0.00 0.00 0.00 47 1016.0
20260506223104 67 52 5.0 10.0 0.00 0.00 0.00 48 1015.9
20260506221604 66 56 5.0 12.0 0.00 0.00 0.00 48 1015.7
20260506221105 67 39 5.0 12.0 0.00 0.00 0.00 48 1015.7
20260506220605 67 71 3.0 18.0 0.00 0.00 0.00 49 1015.7
20260506220104 66 70 5.0 18.0 0.00 0.00 0.00 49 1015.8
20260506215604 66 51 9.0 18.0 0.00 0.00 0.00 48 1015.8
20260506214605 66 43 3.0 14.0 0.00 0.00 0.00 49 1015.8
20260506214104 66 55 5.0 14.0 0.00 0.00 0.00 50 1015.9
20260506213604 66 55 6.0 14.0 0.00 0.00 0.00 50 1015.9
20260506213104 65 0 5.0 12.0 0.00 0.00 0.00 51 1015.9
20260506212604 65 65 6.0 12.0 0.00 0.00 0.00 52 1016.0
20260506212104 64 29 3.0 16.0 0.00 0.00 0.00 53 1016.2
20260506211604 64 24 6.0 16.0 0.00 0.00 0.00 52 1016.2
20260506211105 64 44 5.0 13.0 0.00 0.00 0.00 53 1016.3
20260506210604 64 60 6.0 12.0 0.00 0.00 0.00 53 1016.3
20260506205604 64 354 7.0 13.0 0.00 0.00 0.00 51 1016.4
20260506205104 65 55 5.0 12.0 0.00 0.00 0.00 54 1016.5
20260506204604 65 13 6.0 12.0 0.00 0.00 0.00 51 1016.5
20260506204104 65 349 5.0 14.0 0.00 0.00 0.00 53 1016.5
20260506203605 64 68 7.0 16.0 0.00 0.00 0.00 53 1016.5
20260506203104 64 33 6.0 16.0 0.00 0.00 0.00 54 1016.6
20260506202604 65 29 5.0 16.0 0.00 0.00 0.00 54 1016.6
20260506202104 64 40 5.0 15.0 0.00 0.00 0.00 54 1016.6
20260506201104 64 28 4.0 16.0 0.00 0.00 0.00 54 1016.8
20260506200604 64 55 6.0 13.0 0.00 0.00 0.00 55 1016.8
20260506200105 64 32 5.0 12.0 0.00 0.00 0.00 56 1016.8
20260506195604 63 357 2.0 13.0 0.00 0.00 0.00 55 1016.9
20260506195104 62 66 5.0 13.0 0.00 0.00 0.00 56 1016.9
20260506194105 62 20 5.0 13.0 0.00 0.00 0.00 57 1017.0
20260506193604 61 65 3.0 12.0 0.00 0.00 0.00 58 1017.1
20260506193104 61 7 5.0 12.0 0.00 0.00 0.00 57 1017.2
20260506192604 61 53 3.0 12.0 0.00 0.00 0.00 58 1017.3
20260506192104 61 16 5.0 12.0 0.00 0.00 0.00 57 1017.3
20260506191604 61 43 4.0 13.0 0.00 0.00 0.00 58 1017.3
20260506185104 62 37 6.0 15.0 0.00 0.00 0.00 57 1017.5
20260506183604 62 36 5.0 12.0 0.00 0.00 0.00 57 1017.5
20260506183104 62 45 3.0 12.0 0.00 0.00 0.00 57 1017.5
20260506182604 62 55 5.0 12.0 0.00 0.00 0.00 58 1017.6
20260506182104 62 57 6.0 12.0 0.00 0.00 0.00 56 1017.6
20260506181604 62 62 4.0 16.0 0.00 0.00 0.00 58 1017.8
20260506181105 61 51 5.0 16.0 0.00 0.00 0.00 57 1017.7
20260506180105 62 104 5.0 13.0 0.00 0.00 0.00 56 1017.8
20260506175104 62 56 5.0 16.0 0.00 0.00 0.00 56 1017.9
20260506174605 62 23 5.0 16.0 0.00 0.00 0.00 57 1017.8
20260506174104 62 52 6.0 14.0 0.00 0.00 0.00 60 1017.9
20260506173604 60 47 7.0 13.0 0.00 0.00 0.00 57 1017.9
20260506173104 60 33 5.0 13.0 0.00 0.00 0.00 57 1018.1
20260506172604 61 49 7.0 13.0 0.00 0.00 0.00 56 1018.1
20260506172105 62 22 6.0 14.0 0.00 0.00 0.00 55 1018.0
20260506171104 62 80 7.0 14.0 0.00 0.00 0.00 58 1018.0
20260506165604 61 42 5.0 16.0 0.00 0.00 0.00 58 1018.0
20260506165104 60 91 12.0 16.0 0.00 0.00 0.00 57 1018.1
20260506164604 60 58 6.0 17.0 0.00 0.00 0.00 58 1018.0
20260506164104 60 72 6.0 17.0 0.00 0.00 0.00 59 1018.2
20260506163604 60 68 8.0 16.0 0.00 0.00 0.00 58 1018.3
20260506163104 60 72 5.0 18.0 0.00 0.00 0.00 59 1018.3
20260506162604 60 67 10.0 18.0 0.00 0.00 0.00 58 1018.3
20260506162104 60 61 7.0 18.0 0.00 0.00 0.00 59 1018.2
20260506161105 59 82 7.0 16.0 0.00 0.00 0.00 60 1018.4
20260506160604 58 73 9.0 16.0 0.00 0.00 0.00 61 1018.2
20260506155604 57 78 7.0 15.0 0.00 0.00 0.00 63 1018.1
20260506154605 57 68 9.0 20.0 0.00 0.00 0.00 65 1018.2
20260506153604 56 72 6.0 17.0 0.00 0.00 0.00 67 1017.9
20260506153104 55 45 6.0 17.0 0.00 0.00 0.00 67 1017.9
20260506152604 55 53 7.0 17.0 0.00 0.00 0.00 68 1017.9
20260506152104 55 59 9.0 13.0 0.00 0.00 0.00 69 1017.8
20260506151604 54 47 5.0 18.0 0.00 0.00 0.00 70 1018.0
20260506151104 54 46 7.0 18.0 0.00 0.00 0.00 71 1018.0
20260506150604 53 58 7.0 14.0 0.00 0.00 0.00 72 1018.0
20260506150104 53 47 4.0 13.0 0.00 0.00 0.00 74 1017.9
20260506145604 53 47 7.0 13.0 0.00 0.00 0.00 73 1017.9
20260506144604 51 49 6.0 15.0 0.00 0.00 0.00 76 1017.8
20260506144104 51 26 8.0 15.0 0.00 0.00 0.00 76 1017.7
20260506143104 51 51 5.0 17.0 0.00 0.00 0.00 78 1017.3
20260506142604 51 61 7.0 18.0 0.00 0.00 0.00 78 1017.3
20260506142103 50 63 8.0 18.0 0.00 0.00 0.00 78 1017.4
20260506141104 50 22 5.0 13.0 0.00 0.00 0.00 79 1017.4
20260506135604 50 23 6.0 13.0 0.00 0.00 0.00 81 1017.5
20260506135104 49 55 7.0 13.0 0.00 0.00 0.00 81 1017.5
20260506134104 49 65 4.0 13.0 0.00 0.00 0.00 82 1017.7
20260506133604 49 18 5.0 13.0 0.00 0.00 0.00 82 1017.7
20260506133104 49 49 5.0 14.0 0.00 0.00 0.00 82 1017.6
20260506132103 49 61 5.0 14.0 0.00 0.00 0.00 83 1017.8
20260506131604 49 28 3.0 14.0 0.00 0.00 0.00 83 1017.8
20260506131104 49 28 6.0 14.0 0.00 0.00 0.00 83 1017.6
20260506130604 49 27 6.0 14.0 0.00 0.00 0.00 83 1017.7
20260506130104 49 84 5.0 12.0 0.00 0.00 0.00 83 1017.5
20260506125104 49 31 5.0 13.0 0.00 0.00 0.00 83 1017.4
20260506124604 49 36 5.0 13.0 0.00 0.00 0.00 83 1017.4
20260506123604 49 73 4.0 16.0 0.00 0.00 0.00 84 1017.1
20260506122604 48 30 5.0 12.0 0.00 0.00 0.00 84 1016.8
20260506121603 48 36 5.0 14.0 0.00 0.00 0.00 85 1016.6
20260506121104 48 43 6.0 14.0 0.00 0.00 0.00 85 1016.5
20260506120604 48 67 3.0 9.0 0.00 0.00 0.00 85 1016.2
20260506120104 48 41 3.0 8.0 0.00 0.00 0.00 85 1016.1
20260506115604 48 68 3.0 9.0 0.00 0.00 0.00 85 1016.1
20260506115103 48 1 5.0 10.0 0.00 0.00 0.00 84 1016.1
20260506114604 48 28 3.0 10.0 0.00 0.00 0.00 84 1016.1
20260506114104 48 34 3.0 8.0 0.00 0.00 0.00 84 1016.2
20260506113603 48 24 3.0 10.0 0.00 0.00 0.00 84 1016.2
20260506113104 48 5 2.0 10.0 0.00 0.00 0.00 84 1016.1
20260506112604 48 8 3.0 12.0 0.00 0.00 0.00 84 1015.9
20260506112104 48 12 5.0 12.0 0.00 0.00 0.00 84 1016.0
20260506111604 48 32 4.0 10.0 0.00 0.00 0.00 84 1015.8
20260506110104 48 51 3.0 10.0 0.00 0.00 0.00 83 1015.7
20260506105604 48 34 4.0 10.0 0.00 0.00 0.00 83 1015.7
20260506105104 48 65 4.0 10.0 0.00 0.00 0.00 82 1015.5
20260506104604 49 22 5.0 9.0 0.00 0.00 0.00 82 1015.6
20260506104104 49 17 3.0 10.0 0.00 0.00 0.00 82 1016.0
20260506103104 49 11 5.0 9.0 0.00 0.00 0.00 82 1016.6
20260506102604 49 347 5.0 9.0 0.00 0.00 0.00 81 1016.7
20260506102104 49 25 2.0 9.0 0.00 0.00 0.00 81 1016.3
20260506101104 49 38 2.0 10.0 0.00 0.00 0.00 81 1016.0
20260506100604 49 48 3.0 10.0 0.00 0.00 0.00 81 1016.0
20260506095104 49 28 3.0 9.0 0.00 0.00 0.00 80 1015.8
20260506094604 49 40 2.0 9.0 0.00 0.00 0.00 81 1015.9
20260506094104 49 260 2.0 8.0 0.00 0.00 0.00 80 1015.5
20260506093604 49 20 4.0 8.0 0.00 0.00 0.00 80 1015.3
20260506093104 49 8 3.0 9.0 0.00 0.00 0.00 80 1015.1
20260506092604 49 22 3.0 10.0 0.00 0.00 0.00 80 1015.0
20260506092104 49 4 5.0 10.0 0.00 0.00 0.00 80 1014.9
20260506091604 49 45 2.0 8.0 0.00 0.00 0.00 80 1014.8
20260506091104 49 50 3.0 7.0 0.00 0.00 0.00 79 1014.8
20260506085104 49 32 3.0 12.0 0.00 0.00 0.00 78 1014.7
20260506084604 49 3 5.0 12.0 0.00 0.00 0.00 77 1014.7
20260506083604 49 23 6.0 12.0 0.00 0.00 0.00 77 1014.4
20260506083103 49 12 6.0 10.0 0.00 0.00 0.00 77 1014.4
20260506082604 49 7 5.0 10.0 0.00 0.00 0.00 77 1014.2
20260506082104 49 14 6.0 12.0 0.00 0.00 0.00 77 1014.0
20260506080604 49 9 7.0 13.0 0.00 0.00 0.00 76 1013.8
20260506072603 49 55 4.0 8.0 0.00 0.00 0.00 76 1013.3
20260506072104 49 38 3.0 12.0 0.00 0.00 0.00 76 1013.2
20260506071604 49 62 5.0 12.0 0.00 0.00 0.00 76 1013.1
20260506071104 49 29 2.0 13.0 0.00 0.00 0.00 75 1013.0
20260506070604 49 49 6.0 13.0 0.00 0.00 0.00 75 1012.9
20260506062103 49 47 2.0 9.0 0.00 0.00 0.00 75 1013.3
20260506061603 49 38 4.0 12.0 0.00 0.00 0.00 74 1013.2
20260506061104 49 57 2.0 12.0 0.00 0.00 0.00 74 1013.2
20260506060604 49 39 5.0 12.0 0.00 0.00 0.00 74 1013.2
20260506060104 49 33 3.0 13.0 0.00 0.00 0.00 74 1013.0
20260506051104 50 71 5.0 12.0 0.00 0.00 0.00 72 1012.8
20260506050604 50 64 6.0 12.0 0.00 0.00 0.00 72 1012.8
20260506050104 50 67 5.0 13.0 0.00 0.00 0.00 72 1012.8
20260506045104 50 29 5.0 13.0 0.00 0.00 0.00 73 1012.8
20260506044604 50 55 8.0 16.0 0.00 0.00 0.00 73 1012.6
20260506044103 50 50 6.0 16.0 0.00 0.00 0.00 73 1012.9
20260506043104 50 50 5.0 12.0 0.00 0.00 0.00 74 1013.0
20260506042604 50 61 6.0 13.0 0.00 0.00 0.00 74 1013.0
20260506042104 50 45 5.0 13.0 0.00 0.00 0.00 74 1013.0
20260506041604 50 27 4.0 13.0 0.00 0.00 0.00 74 1012.9
20260506041104 50 46 5.0 13.0 0.00 0.00 0.00 74 1012.8
20260506035104 49 60 7.0 15.0 0.00 0.00 0.00 77 1012.7
20260506034604 49 42 6.0 15.0 0.00 0.00 0.00 78 1012.5
20260506034104 49 55 5.0 12.0 0.00 0.00 0.00 78 1012.6
20260506033604 49 53 6.0 14.0 0.00 0.00 0.00 79 1012.6
20260506032604 49 28 7.0 16.0 0.00 0.00 0.00 81 1012.3
20260506032104 49 35 6.0 14.0 0.00 0.00 0.00 81 1012.1
20260506031604 49 17 7.0 14.0 0.00 0.00 0.00 82 1011.9
20260506031104 49 22 7.0 16.0 0.00 0.00 0.00 82 1011.4
20260506030103 49 62 6.0 18.0 0.00 0.00 0.00 83 1011.3
20260506025603 49 63 8.0 17.0 0.00 0.00 0.00 84 1011.4
20260506025104 49 55 6.0 16.0 0.00 0.00 0.00 84 1011.5
20260506023604 49 41 5.0 15.0 0.00 0.00 0.00 85 1011.5
20260506023103 49 18 7.0 15.0 0.00 0.00 0.00 85 1011.7
20260506022603 49 30 5.0 15.0 0.00 0.00 0.00 85 1011.6
20260506022103 50 10 5.0 15.0 0.00 0.00 0.00 84 1011.7
20260506021104 50 2 4.0 14.0 0.00 0.00 0.00 84 1011.6
20260506020603 49 35 3.0 14.0 0.00 0.00 0.00 83 1011.5
20260506020103 49 19 7.0 13.0 0.00 0.00 0.00 84 1011.3
20260506015603 50 17 6.0 13.0 0.00 0.00 0.00 83 1011.2
20260506015104 50 358 7.0 13.0 0.00 0.00 0.00 83 1011.2
20260506013604 50 40 5.0 14.0 0.00 0.00 0.00 83 1011.0
20260506012603 50 44 6.0 14.0 0.00 0.00 0.00 83 1010.8
20260506011604 50 19 5.0 14.0 0.00 0.00 0.00 82 1010.9
20260506010604 50 55 4.0 14.0 0.00 0.00 0.00 82 1010.6
20260506010103 50 22 7.0 15.0 0.00 0.00 0.00 82 1010.5
20260506005603 50 14 7.0 15.0 0.00 0.00 0.00 82 1010.5
20260506005104 50 10 7.0 16.0 0.00 0.00 0.00 82 1010.2
20260506004604 50 14 6.0 17.0 0.00 0.00 0.00 82 1010.1
20260506003604 51 17 6.0 13.0 0.00 0.00 0.00 82 1009.7
20260506003104 51 14 5.0 12.0 0.00 0.00 0.00 82 1009.7
20260506002604 51 350 5.0 15.0 0.00 0.00 0.00 81 1009.8
20260506001603 51 25 6.0 17.0 0.00 0.00 0.00 81 1009.5
20260506001103 51 38 6.0 17.0 0.00 0.00 0.00 80 1009.5
20260506000604 51 25 6.0 13.0 0.00 0.00 0.00 80 1009.4
20260506000104 51 11 6.0 16.0 0.00 0.00 0.00 80 1009.5
20260505235604 51 40 6.0 16.0 0.00 0.00 0.00 79 1009.7